ONEWEB-0319, 49105

Orbit data source: Space-Track

ONEWEB-0319, 49105 is a payload satellite owned by One Web (NAA) (UK) in LEO that was launched on Sat, 21 Aug 2021 UTC via a SOYUZ-2-1B launch vehicle from the Tyuratam Missile And Space Complex (TTMTR). Payload-class satellites include a variety of spacecraft equipped with specific instruments for various scientific and technological missions. These include communications satellites like Starlink; space stations such as the ISS; scientific satellites like the Hubble; Earth observation satellites from companies like Planet Labs, Umbra, and HawkEye 360; GPS; miniature CubeSats for education and research; and military/defense satellites.

Loading next visibility...
Identifier
49105, 2021-075AG
Orbit
LEO
Country
Flag of UKUK
Related business
Manufacturer
One Web
Mission
Operational Commercial Communications
Bus & Motor
ARROW, Unknown motor
Mass
148 kg wet, ~140 kg dry
Launch date (UTC)
2021-08-21 (5 years ago)
Launch vehicle
SOYUZ-2-1B
Launch site
Tyuratam Missile And Space Complex (TTMTR)
Object type
Payload
Rocket body
Debris
Shape & HBR
Trap Box + 2 Pan, 6.7 m
Radar Cross Section
3.464 m², Large (>1 m²)

Expand to show TLE details & history
Last TLE update: 23 hours ago

TLE from 23 hours ago
0 ONEWEB-0319
1 49105U 21075AG  26175.23546666  .00000048  00000-0  91383-4 0  9993
2 49105  87.9132   4.4655 0002054  74.5723 285.5635 13.17649678234537
Epoch: 2026-06-24T05:39Z
TLE epoch observation values (Epoch: 2026-06-24T05:39:04.319Z)
Latitude
-0.00005°
Longitude
7.30191°
Altitude
1,196.192 km
Speed
7.256 km/s
True Right ascension
00h 17m 51s
True Declination
0° 00' 00"
Sunlit
Object was in daylight at epoch
Visualization orbit readout
Latitude
Unknown
Longitude
Unknown
Altitude
Unknown
Speed
Unknown
Apparent Right ascension
Unknown
Apparent Declination
Unknown
Sunlit
N/A
Visualization observer readout
Local Sidereal Time
15:28:26
Azimuth
Unknown
Elevation
Unknown
Doppler factor
Unknown
Orbital elements
Apogee altitude
1,192.374 km
Perigee altitude
1,189.265 km
Semi-major axis
7,568.956 km
Eccentricity
0.00021
Inclination
87.9132°
RAAN
4.4655°
Arg. of periapsis
74.5723°
True anomaly
285.54082°
Mean anomaly
285.5635°
Eccentric anomaly
285.55216°
Mean motion
3.29601 °/min
Orbital period
109.22 mins
BSTAR
0.000091383
Loading maneuver chart data...
Computing Atmospheric mass density...
Loading historical data...
Loading historical data...
Loading historical data...
Loading historical data...
Loading historical data...
Loading historical data...
Loading historical data...

Documentation

Showing up to 5 results
|